Location: St. Louis
(38.6270°N, 90.1994°W)
Time: 01:54:57
(UTC-06:00)

Vanguard 2 - Pass Details

Date: 09 December 2021
Orbit: 553 x 2936 km, 32.9° (Epoch: 16 January)

Event Time Altitude Azimuth Distance (km) Brightness Sun altitude
Rises 11:16:53 0° 234° (SW) 2,802 10.8 27.9°
Reaches altitude 10° 11:19:25 10° 221° (SW) 1,830 10.1 28.0°
Maximum altitude 11:22:45 26° 163° (SSE) 1,120 11.0 28.1°
Drops below altitude 10° 11:26:18 10° 106° (ESE) 1,960 10.0 28.2°
Sets 11:29:08 0° 93° (E) 3,054 10.7 28.2°
